RH
91 74 53 53 65 66 86 79 90 61 56 41 36 43 67 66 72 81 91 96 100 99 96 89 83 84 85 86 83 75 71 70 66 61 56 50 46 33 17 11 8 7 7 8
89 80 72 58 54 52 56 66 62 58 56 39 51 54 72 73 83 91 98 100 99 96 94 88 85 84 84 79 71 69 69 66 61 55 50 44 30 16 11 8 8 8 9 13
86 85 81 86 58 56 50 48 53 64 45 40 44 57 77 83 91 96 100 100 99 95 91 88 83 82 80 70 68 68 64 61 55 50 43 26 15 10 8 8 8 11 15 19
92 87 95 53 44 40 46 44 44 40 38 38 33 52 60 73 88 97 99 99 98 94 90 87 83 80 72 67 68 67 63 56 50 39 23 14 10 9 8 10 13 18 23 28
95 87 83 57 45 49 51 46 42 44 39 38 64 66 78 79 87 90 97 98 94 90 86 85 81 74 69 71 69 64 56 48 33 20 13 10 9 9 11 16 23 26 31 34
83 96 80 58 39 38 38 48 34 38 38 75 61 66 83 88 88 95 93 91 90 88 86 82 76 72 72 69 62 53 41 28 18 12 10 9 10 14 21 26 29 35 39 41
83 79 84 60 53 42 53 45 46 41 37 67 48 42 73 88 90 87 86 88 88 86 82 77 76 74 69 57 46 34 22 15 12 10 10 13 18 25 28 34 40 42 45 51
86 87 83 58 48 55 57 58 57 50 45 58 65 76 83 83 83 84 84 80 83 80 77 75 72 68 53 39 27 18 14 12 11 12 16 23 27 32 40 44 45 48 52 62
71 65 60 60 61 53 62 69 62 60 57 62 69 67 71 72 75 77 78 76 75 76 68 58 54 52 34 22 17 14 12 12 15 22 26 31 38 42 45 47 50 60 69 72
74 61 63 60 59 60 62 63 64 63 63 58 61 62 62 63 65 69 70 72 71 58 46 38 31 22 17 15 14 13 15 22 27 30 33 38 42 45 49 58 71 76 78 78
81 67 57 53 53 53 53 56 56 56 57 58 59 56 57 56 56 56 54 47 43 37 28 24 21 17 15 13 15 20 26 28 32 37 40 44 49 58 69 76 80 89 82 78
82 67 63 57 52 50 49 50 51 52 53 54 56 56 55 54 50 44 39 36 30 22 18 19 16 15 20 24 26 27 31 36 40 44 51 57 67 77 77 76 76 74 73 76
81 54 51 50 49 48 49 50 51 52 53 53 53 52 49 45 38 34 27 20 16 15 15 18 22 24 28 29 33 36 40 44 53 60 63 69 70 71 71 71 71 71 72 73
54 51 55 53 56 53 52 54 52 51 52 50 46 42 35 28 21 18 17 16 15 17 24 27 28 30 35 38 41 46 52 58 62 64 72 74 72 69 68 69 70 72 74 72
60 58 60 59 56 58 56 52 56 56 52 47 35 24 20 22 23 24 25 25 26 28 31 33 36 40 46 50 54 58 62 61 64 75 78 75 72 73 72 75 76 74 70 69
65 63 62 62 62 60 57 55 50 52 35 27 22 22 22 23 30 35 36 34 27 33 39 42 47 52 54 55 56 55 55 77 85 80 77 76 76 77 79 81 82 77 75 74
80 69 66 69 66 62 60 52 30 23 24 24 30 31 28 31 40 40 39 38 35 38 43 48 49 54 56 55 55 63 79 84 82 77 79 78 82 92 89 92 87 86 76 76
92 99 96 81 71 60 57 56 54 50 47 42 38 32 27 25 29 36 38 38 37 39 46 52 54 54 61 70 73 74 77 82 89 88 92 97 94 98 85 82 81 77 73 72
94 92 89 92 93 92 85 65 49 40 30 27 28 34 39 41 42 41 38 37 41 48 58 60 67 75 84 90 81 80 87 90 97 99 100 98 91 77 75 70 71 72 72 76
95 92 79 68 58 47 42 44 42 43 48 43 44 46 45 47 44 38 40 46 58 61 65 73 81 82 82 100 86 87 88 98 100 100 100 86 75 64 63 68 70 74 84 90
60 53 54 52 55 55 54 55 50 53 58 54 49 50 50 48 45 45 50 54 68 73 77 78 90 94 91 91 94 94 100 100 92 86 80 70 64 67 68 69 78 85 89 92
67 64 64 61 58 61 60 57 55 56 55 54 52 50 48 47 50 55 64 74 78 86 80 88 93 94 95 96 96 94 93 88 81 77 72 67 68 69 70 78 85 86 89 92
53 50 48 45 44 45 45 44 43 44 42 44 45 47 48 51 57 64 68 79 84 99 94 97 100 100 95 91 91 88 80 78 79 75 71 70 73 75 80 83 86 89 89 87
63 62 63 66 66 62 57 66 68 67 69 70 71 72 73 74 76 80 85 96 98 100 95 98 98 95 89 88 88 84 79 80 78 73 70 72 77 80 81 84 88 90 86 85
70 72 72 69 68 76 80 82 83 81 80 79 80 82 84 86 85 91 93 95 100 100 98 97 98 97 93 90 87 81 82 81 74 70 71 74 79 79 83 90 91 84 83 82
72 73 79 82 83 87 88 87 84 86 88 87 89 90 92 92 93 95 94 93 97 97 100 100 98 98 95 88 86 80 78 76 76 75 75 78 80 82 86 90 91 86 78 74
86 85 86 85 85 87 88 83 84 83 83 84 85 85 88 90 93 94 96 98 99 99 97 97 98 91 85 80 75 74 74 75 75 75 77 81 81 84 86 84 81 74 69 67
Wind_Speed
10 16 6 5 14 19 16 18 9 14 15 23 2 4 7 13 16 31 30 32 33 37 41 47 51 51 49 46 41 39 39 36 34 32 29 25 22 18 15 13 13 14 16 18
8 14 18 9 9 16 20 20 18 15 18 5 4 8 10 18 20 18 30 33 36 37 40 48 51 51 48 43 41 40 37 35 34 30 27 22 19 15 13 12 13 15 17 18
6 8 7 13 22 9 15 18 18 20 24 5 4 6 11 18 22 23 24 28 34 41 44 48 49 49 45 43 41 39 36 34 31 27 23 19 15 13 11 12 14 15 17 18
7 8 7 6 11 21 17 17 17 16 6 9 12 6 17 26 30 29 31 34 38 41 44 46 48 46 44 42 40 38 35 31 27 24 20 16 13 11 11 13 14 15 16 17
4 5 9 7 4 11 13 25 14 16 15 5 12 9 3 22 28 35 38 38 39 42 45 47 45 43 43 41 38 34 32 28 24 19 15 12 11 10 11 12 13 14 15 16
6 5 6 6 4 3 6 14 8 17 16 9 13 5 4 27 31 34 36 38 41 42 45 43 41 42 42 39 35 32 28 24 20 16 12 10 10 10 11 12 13 13 14 15
12 9 6 8 6 8 7 5 3 6 14 20 11 8 27 35 37 37 38 40 41 43 43 42 43 41 39 36 32 28 24 20 16 12 10 9 9 10 11 11 11 13 13 15
8 11 14 3 3 3 3 9 7 10 13 19 19 32 41 40 39 39 40 42 43 44 44 43 41 38 36 33 28 24 20 16 12 10 8 8 9 9 10 10 12 13 14 14
11 7 2 3 1 14 16 15 9 4 14 28 36 35 43 43 43 44 45 45 45 47 45 40 36 33 34 30 25 20 16 12 9 8 7 8 7 8 10 11 12 12 13 14
3 0 2 5 5 6 5 2 3 16 29 35 40 38 41 41 44 46 46 47 48 48 44 39 33 30 27 25 19 15 12 9 8 7 7 7 8 9 10 9 9 11 13 13
4 2 2 15 9 10 16 18 25 28 32 38 48 38 43 44 44 49 53 52 47 44 40 36 30 25 21 18 14 12 9 7 6 6 5 6 7 6 6 7 9 10 12 13
3 3 7 6 11 19 26 28 30 38 36 32 40 49 48 43 46 52 50 46 43 39 35 30 25 22 19 15 11 8 7 6 5 5 4 3 3 4 5 6 7 8 8 10
4 15 23 22 22 26 35 35 35 38 39 45 39 46 51 49 49 47 44 41 38 35 31 27 22 19 15 11 8 6 5 5 5 3 2 2 2 3 3 5 6 7 8 9
19 28 19 21 24 34 38 38 41 42 42 45 48 49 50 48 45 43 40 36 33 29 26 22 18 15 11 8 6 5 5 5 4 2 2 1 3 4 5 5 5 5 7 10
25 28 30 31 37 36 39 43 45 44 44 45 47 49 47 45 42 38 34 30 27 24 21 17 13 11 8 7 6 5 4 3 2 2 1 3 4 4 4 4 5 8 10 10
29 34 35 37 38 37 39 40 48 42 47 47 46 43 41 39 36 31 27 23 21 20 17 13 11 9 6 5 4 3 1 3 3 1 2 2 2 2 3 5 7 9 12 12
29 31 35 39 39 39 37 39 48 47 44 41 39 35 33 31 30 26 22 18 15 15 13 10 7 5 4 2 1 2 5 3 1 1 1 1 1 3 4 6 9 11 13 12
43 40 43 46 46 46 44 41 39 38 36 32 29 26 24 21 21 19 16 14 12 11 9 6 4 3 3 2 2 4 3 1 1 2 3 2 2 4 6 9 9 12 13 13
39 41 40 41 40 39 36 33 31 29 26 23 21 21 19 18 16 14 12 10 9 7 6 4 4 3 3 3 3 3 3 4 4 4 3 2 5 5 6 9 10 12 13 13
34 33 33 31 28 27 26 24 23 22 19 17 17 16 15 13 11 9 9 9 7 5 5 5 4 2 4 5 3 2 5 5 5 4 2 3 4 6 7 9 9 9 10 11
26 25 26 26 25 23 21 18 18 18 16 13 11 11 10 10 8 7 7 6 6 5 4 5 5 3 5 4 2 5 6 6 4 3 1 2 4 7 8 7 7 10 9 10
22 22 22 20 20 20 17 15 14 13 11 9 8 7 6 6 5 5 6 4 5 5 5 6 5 5 6 5 5 6 6 5 3 1 0 2 6 7 7 7 8 10 11 12
18 18 17 17 16 15 12 11 10 9 7 6 5 4 3 2 2 2 2 4 4 3 8 5 6 6 5 5 5 6 5 4 3 1 0 3 7 8 6 7 9 11 14 15
15 14 14 13 10 9 9 9 7 6 4 3 2 1 1 0 2 3 5 5 5 6 7 8 9 5 2 4 6 5 4 3 1 1 0 4 6 8 7 8 8 11 14 13
13 12 11 10 9 11 8 7 5 5 4 4 3 2 1 2 3 5 6 5 7 7 6 9 10 5 2 2 5 5 4 3 1 0 2 4 6 7 7 7 10 13 14 14
11 11 11 11 10 9 9 6 5 5 5 3 2 1 1 1 2 4 5 6 7 9 15 16 11 8 7 4 5 5 4 3 2 2 3 4 6 6 7 6 10 13 14 14
10 10 9 8 8 8 8 6 4 4 3 2 2 2 1 1 2 4 5 6 5 6 7 10 10 7 5 4 4 4 4 3 2 3 2 4 4 6 8 9 10 12 13 14
Wind_Direction
270 271 256 214 199 205 205 222 203 258 240 264 197 177 170 155 152 143 147 156 162 163 170 178 181 182 182 184 185 187 184 184 185 185 187 190 195 203 216 232 251 268 281 290
290 253 249 240 223 203 211 221 242 257 269 335 21 131 153 158 158 164 154 159 163 164 171 178 179 177 179 179 180 180 179 179 182 183 186 190 197 207 223 242 263 277 288 295
282 332 224 246 228 210 220 225 219 234 248 181 244 188 168 166 161 157 155 157 157 167 175 179 177 176 176 176 175 176 176 177 180 183 186 191 200 215 235 256 272 284 292 298
286 328 225 261 189 217 221 232 226 247 267 206 244 157 178 185 166 157 159 160 165 168 174 175 173 174 174 172 172 173 174 175 179 183 187 193 207 228 250 267 279 288 295 299
269 272 300 313 225 187 196 239 220 220 236 183 136 110 132 179 174 169 168 169 173 176 175 170 171 170 168 166 168 171 171 174 178 183 190 202 221 242 261 275 285 292 297 301
199 242 251 241 232 116 103 254 212 203 220 159 143 181 181 161 166 161 168 175 174 172 168 166 165 166 165 164 166 169 170 173 177 185 198 218 236 255 268 280 288 295 301 305
217 239 285 266 322 331 128 240 17 212 206 166 195 209 155 161 158 167 167 166 165 164 161 160 160 163 162 162 163 166 168 173 179 190 208 229 249 264 277 282 290 300 306 308
228 217 244 13 3 186 318 321 319 298 210 170 141 134 142 152 154 156 155 156 160 157 154 155 160 163 158 159 160 165 169 175 183 200 221 243 260 271 274 288 302 307 308 307
194 200 215 130 219 295 309 280 298 269 180 156 129 130 139 142 148 152 154 155 156 151 147 150 155 162 156 155 160 164 169 178 192 210 232 248 256 269 290 301 305 304 303 310
229 157 336 47 46 339 339 249 131 152 149 150 128 131 129 133 139 143 149 150 149 145 144 145 150 152 154 153 157 162 173 183 197 215 231 251 274 287 292 294 295 299 310 320
299 289 105 54 83 105 102 110 114 120 127 130 132 124 127 129 132 138 141 143 143 140 139 138 144 146 146 149 155 167 177 187 202 221 247 270 277 277 282 293 302 310 323 330
297 329 64 72 112 117 110 103 110 117 112 113 122 126 129 124 131 137 138 139 137 136 136 136 143 144 145 149 156 169 181 192 210 230 248 252 252 274 293 303 311 322 329 331
296 91 109 113 111 114 109 107 108 108 112 114 114 122 128 127 133 133 133 134 134 135 136 139 141 143 143 147 156 170 184 196 203 214 209 228 280 300 326 335 335 333 333 331
108 106 86 98 101 104 106 106 109 109 111 117 122 123 127 127 129 128 129 130 132 133 134 136 138 139 140 144 153 167 179 187 181 174 215 292 339 353 350 345 347 335 335 337
83 100 104 105 103 99 107 114 104 102 109 111 121 125 126 125 123 123 125 128 129 130 129 132 132 134 138 145 152 156 164 151 151 177 313 354 359 356 350 342 339 333 332 335
85 89 92 90 91 93 99 101 104 104 114 119 119 120 120 119 119 120 121 123 125 124 125 131 136 134 137 140 136 122 138 149 142 66 7 347 358 341 339 339 328 327 329 333
77 78 84 81 84 87 89 99 110 113 114 114 114 116 116 117 117 116 117 120 120 121 122 123 122 124 128 134 120 128 149 151 27 40 66 50 36 333 322 323 317 321 327 330
92 87 90 92 93 96 97 98 101 104 104 107 108 109 112 120 121 119 118 119 120 118 115 116 121 131 144 149 118 129 142 176 198 174 143 118 307 312 314 313 314 317 323 330
99 100 97 95 93 92 93 96 99 103 111 118 123 118 115 113 113 115 116 117 117 119 118 118 128 124 136 135 125 139 160 180 166 156 153 233 289 303 311 319 327 332 336 336
89 91 94 98 103 104 106 108 113 112 109 115 115 115 113 110 112 116 120 126 127 126 135 142 152 153 148 143 140 172 176 165 164 162 213 284 309 335 334 335 342 348 342 339
93 97 99 102 101 101 101 105 108 108 108 107 109 111 115 119 122 125 133 139 138 142 157 159 159 145 148 147 192 185 174 176 182 188 223 331 348 346 345 358 3 349 339 340
90 91 92 94 95 96 94 96 97 100 103 106 106 107 109 114 118 128 138 150 158 165 167 157 165 175 188 196 202 185 178 183 187 184 341 18 360 360 4 9 3 0 352 341
85 84 86 85 83 84 91 89 87 85 85 87 89 93 99 114 137 141 168 178 174 163 168 169 155 191 192 201 194 186 187 189 183 196 54 11 5 5 5 5 1 356 346 343
84 81 77 73 72 78 73 67 60 55 52 50 43 25 359 204 202 194 191 191 182 188 184 161 192 225 206 204 196 190 187 181 182 222 314 345 348 353 355 356 354 349 346 352
71 69 68 65 62 60 54 50 39 42 47 49 60 73 103 154 173 178 185 188 174 177 172 175 208 227 276 273 207 202 192 189 223 282 312 322 341 345 346 352 347 349 351 346
59 54 51 47 44 37 30 30 38 45 48 51 57 63 112 151 179 194 207 206 194 181 172 185 219 254 284 254 221 205 206 208 238 286 302 326 341 353 353 335 338 345 345 345
46 47 43 35 28 23 16 26 22 4 357 8 18 8 340 289 245 226 198 183 178 188 202 217 230 237 228 213 207 204 204 212 248 276 289 324 335 344 347 341 335 342 346 345